* Astronomy

Members Login
Username 
 
Password 
    Remember Me  
Post Info TOPIC: SL-3 rocket body re-entry


New

Posts: 1
Date:
RE: SL-3 rocket body re-entry
Permalink  
 


Any news about SL-3 ???



__________________


L

Posts: 131433
Date:
Permalink  
 

Update:
The SL-3 (Vostok Stage 2) rocket body re-entered the Earths atmosphere on the 28th October, 2011 @ 16:51 GMT  ± 1 minute.

SL-3 RB
1 10582U 78004B   11300.91480926 +.03637523 -94300-6 +39843-3 0 02219
2 10582 081.1592 191.9218 0006884 153.4864 206.6171 16.37308531863683

Period:       87.67 minutes
Inclination: 81.16°
Apogee:     162 km
Perigee:     157 km
Revolution Number: 86381
Predicted Location:  21°S, 258°E



__________________


L

Posts: 131433
Date:
Permalink  
 

Update:
The SL-3 (Vostok Stage 2) rocket body is predicted to re-enter the Earths atmosphere on the 28th October, 2011 @17:50  GMT  ± 6 hours.

SL-3 RB
1 10582U 78004B   11300.73154676  .04468981 -90623-6  56596-3 0  2207
2 10582 081.1473 192.1852 0004780 195.7161 165.2338 16.36015381863659

Period:       88.75 minutes
Inclination: 81.16°
Apogee:     218 km
Perigee:     207 km
Revolution Number: 86384
Predicted Location:  28.1°S, 72.1°E



__________________


L

Posts: 131433
Date:
Permalink  
 

Update:
The SL-3 (Vostok Stage 2) rocket body is predicted to re-enter the Earths atmosphere on the 28th October, 2011 @ 16:22 GMT  ± 48 hours.

SL-3 RB
1 10582U 78004B   11296.85355467 +.01030264 -93956-6 +60651-3 0 02031
2 10582 081.1612 197.4940 0007785 160.6569 199.5333 16.18595808863024

Period:       89.01 minutes
Inclination: 81.16°
Apogee:     231 km
Perigee:     221 km
Revolution Number: 86383
Predicted Location:  23.7°S, 93.5°E



__________________


L

Posts: 131433
Date:
Permalink  
 

Update:
The SL-3 (Vostok Stage 2) rocket body is predicted to re-enter the Earths atmosphere on the 19th October, 2011 @ --:-- GMT  ± -- hours.

SL-3 RB
1 10582U 78004B   11286.85040019  .00423237  80744-4  63408-3 0  1703
2 10582 081.1663 210.8845 0005541 152.5947 207.5636 16.04685533861419

Period:       89.76 minutes
Inclination: 81.16°
Apogee:     266 km
Perigee:     259 km
Revolution Number: -
Predicted Location:  -



__________________


L

Posts: 131433
Date:
Permalink  
 

Update:
The SL-3 (Vostok Stage 2) rocket body is predicted to re-enter the Earths atmosphere on the 17th October, 2011 @ --:-- GMT  ± -- hours.

SL-3 RB
1 10582U 78004B   11284.54176531  .00402989  70751-4  67214-3 0  1624
2 10582 081.1639 213.9495 0004967 147.2981 212.8520 16.02886373861040

Period:       89.84 minutes
Inclination: 81.16°
Apogee:     270 km
Perigee:     263 km
Revolution Number: -
Predicted Location:  -



__________________


L

Posts: 131433
Date:
Permalink  
 

Update:
A SL-3 (Vostok Stage 2) rocket body that was launched on the 10th January, 1978, from the Plesetsk launch facility, for the KOSMOS 975 satellite mission is predicted to re-enter the Earths atmosphere on the 21st October, 2011 @ --:-- GMT  ± -- hours.

SL-3 RB
1 10582U 78004B   11272.96395469 +.00258173 +24832-4 +64481-3 0 01288
2 10582 081.1627 229.1859 0003412 111.2149 248.9470 15.95695477859192

Period:       90.24 minutes
Inclination: 81.16°
Apogee:     289 km
Perigee:     284 km
Revolution Number: -
Predicted Location:  -



__________________


L

Posts: 131433
Date:
Permalink  
 

A SL-3 (Vostok Stage 2) rocket body that was launched on the 10th January, 1978, from the Plesetsk launch facility, for the KOSMOS 975 satellite mission is predicted to re-enter the Earths atmosphere on the 31st October, 2011 @ --:-- GMT  ± -- hours.

SL-3 RB
1 10582U 78004B   11252.65760876  .00088167  17652-5  31698-3 0   921
2 10582 081.1650 255.6368 0004820 074.5161 285.6435 15.88577151855966

Period:       90.65 minutes
Inclination: 81.17°
Apogee:     309 km
Perigee:     303 km
Revolution Number: -
Predicted Location:  -



__________________
Page 1 of 1  sorted by
 
Quick Reply

Please log in to post quick replies.



Create your own FREE Forum
Report Abuse
Powered by ActiveBoard